Wind_Speed
5 7 6 3 3 3 5 7 11 9 5 6 10 12 10 10 8 7 7 7 7 6 5 5 6 8 9 9 8 8 10 11 12 14 16 18 19 21 22 22 23 25 27 28
5 5 4 3 4 5 8 12 11 7 5 5 10 10 8 7 5 4 3 5 6 6 8 8 9 10 11 11 12 13 14 15 16 18 20 22 25 26 28 29 30 30 31 29
7 7 5 6 8 8 4 3 11 6 9 6 9 8 8 6 5 4 3 3 4 7 10 10 9 11 11 12 13 15 16 17 18 18 21 24 25 26 27 27 27 26 23 23
5 3 6 6 4 4 4 2 9 14 9 2 7 2 7 5 5 3 2 3 7 9 10 10 13 14 13 13 13 12 14 15 16 16 17 20 23 27 27 27 27 26 25 24
4 7 7 5 1 2 4 9 9 9 2 6 7 5 7 5 6 2 3 5 8 9 13 14 14 12 11 12 14 15 15 15 16 17 18 20 23 26 26 26 26 26 24 22
8 5 1 3 5 3 13 12 8 4 3 4 4 4 4 5 2 2 4 6 9 12 13 12 13 13 14 13 16 16 16 18 19 19 20 20 20 23 22 24 26 27 26 26
7 3 5 7 10 11 6 12 4 4 4 3 3 4 3 5 3 3 5 9 11 12 14 14 14 14 15 16 17 16 18 22 22 21 18 17 19 21 22 24 26 27 27 25
8 6 6 2 4 5 12 12 3 4 3 3 4 3 3 2 3 3 4 7 11 14 14 14 15 16 17 17 17 19 21 23 20 16 17 18 20 21 20 19 19 21 21 21
5 4 4 4 2 3 8 8 2 1 1 3 4 1 4 4 5 3 6 9 13 14 16 16 17 17 17 17 18 20 22 24 19 18 20 17 17 20 20 22 22 25 24 25
3 3 5 5 2 4 5 6 4 4 4 4 4 5 4 7 3 4 7 10 13 16 17 17 17 17 17 18 19 20 22 22 25 24 19 15 19 23 23 22 21 22 22 23
3 4 5 4 6 5 5 5 1 4 1 1 4 3 5 6 3 4 7 10 14 17 17 18 18 17 17 19 20 22 22 28 28 23 15 17 19 22 21 21 20 20 21 21
1 2 5 5 4 2 1 2 6 3 3 0 1 4 2 2 3 4 8 11 14 16 18 18 18 17 19 20 22 25 30 26 26 20 17 18 21 24 22 20 19 21 25 18
2 4 4 5 5 5 6 4 2 6 1 2 2 4 3 3 2 5 8 12 15 17 18 18 18 19 20 21 23 27 24 23 24 21 19 19 22 22 21 20 20 18 19 16
2 1 4 5 8 5 3 3 4 3 2 7 3 9 5 3 5 9 10 13 16 17 18 18 19 20 20 21 23 25 21 24 23 21 21 19 20 22 22 21 20 17 15 15
2 2 4 3 4 6 7 7 3 5 5 1 8 7 5 6 7 9 10 14 16 18 18 19 20 20 20 21 25 23 21 24 24 20 17 19 21 21 19 19 20 15 16 17
1 5 3 8 11 16 15 11 14 13 13 13 11 9 5 6 7 9 12 15 16 17 18 19 19 20 20 21 25 24 24 25 23 18 17 18 20 21 20 18 17 15 17 17
2 5 2 5 14 14 10 7 9 10 8 5 6 5 6 7 9 8 13 14 16 16 18 19 19 19 20 20 24 24 27 24 19 17 16 18 19 21 21 22 20 19 18 16
6 8 1 3 5 3 4 3 5 11 9 7 7 7 7 8 8 5 12 13 15 15 17 18 19 18 19 19 23 23 26 24 19 18 16 17 19 22 22 23 20 19 17 15
4 1 3 2 8 5 1 4 1 2 7 6 8 9 13 13 6 8 12 12 12 13 15 16 16 17 18 19 20 24 25 23 18 18 16 18 19 21 24 25 21 18 15 14
5 3 2 1 3 2 5 4 1 5 3 6 6 11 12 13 6 11 13 11 12 13 14 17 16 16 18 19 18 30 23 24 21 17 16 17 19 23 23 23 19 19 13 14
3 4 6 4 3 3 3 2 1 4 5 4 7 8 10 8 7 7 10 11 11 13 14 16 15 16 18 19 18 27 30 22 21 19 17 17 19 23 22 20 18 18 14 14
1 0 2 1 3 3 7 4 3 4 2 5 7 8 6 5 6 8 9 10 12 13 15 16 17 17 18 19 20 21 28 28 20 19 16 17 19 23 23 21 19 17 14 15
2 1 2 3 3 7 5 3 2 1 4 5 8 7 5 6 7 8 9 11 12 14 15 15 17 17 18 20 21 22 23 30 23 19 18 18 16 19 22 22 22 20 17 15
1 2 4 4 6 7 4 2 1 6 5 4 4 5 6 6 7 7 9 12 13 15 16 16 18 18 20 20 21 21 22 22 29 17 18 18 17 20 20 21 20 21 22 19
1 8 6 9 9 7 3 5 6 3 6 6 6 6 6 7 8 9 10 12 14 14 15 16 16 17 19 20 21 21 22 22 24 19 19 17 19 19 19 19 21 20 22 21
9 8 6 4 7 3 5 6 8 9 9 6 5 6 8 9 9 9 11 12 13 14 17 18 18 20 22 24 23 24 22 22 22 26 18 20 20 17 17 18 19 18 18 18
Wind_Direction
163 219 213 39 293 351 117 143 127 117 116 87 122 129 127 126 128 115 89 77 65 45 20 359 338 330 322 319 311 309 302 297 289 286 282 280 278 278 276 272 272 272 271 266
181 196 101 95 122 130 135 133 124 112 119 164 148 131 133 141 113 99 95 84 44 15 357 340 324 313 303 296 291 286 289 293 288 283 281 278 277 276 274 272 271 269 267 265
223 122 151 154 139 135 129 250 168 130 135 143 159 158 165 142 165 152 113 40 2 350 343 339 337 333 322 313 304 297 293 290 286 280 278 278 279 280 280 279 277 274 269 264
103 125 162 157 157 275 194 167 148 149 186 182 214 131 182 171 171 174 99 9 356 349 346 336 330 325 318 314 308 308 302 298 295 288 287 283 281 280 279 277 275 270 269 272
112 149 150 169 113 235 116 141 154 161 171 181 182 248 98 205 191 106 42 4 352 350 339 332 331 329 328 325 320 316 311 309 304 298 295 290 287 285 284 280 279 279 277 273
118 117 104 105 86 178 132 130 139 178 205 243 139 263 178 181 120 87 42 5 357 346 341 339 334 332 328 327 326 322 317 313 310 303 302 298 294 292 291 287 282 281 277 272
147 120 116 154 116 146 179 174 168 220 204 231 142 231 75 141 127 31 19 360 350 350 342 337 338 337 333 328 331 331 326 320 316 310 307 305 307 302 298 292 288 283 279 275
197 188 184 151 256 203 199 210 225 239 215 131 165 225 124 111 122 77 20 359 354 350 347 343 342 339 336 334 335 332 332 328 322 318 316 313 310 305 298 293 286 284 277 272
204 181 122 80 166 242 170 219 38 186 340 250 144 208 190 176 140 61 24 3 359 352 347 346 344 342 341 338 337 337 336 333 329 324 320 320 309 307 304 298 294 292 286 284
172 185 195 131 198 88 281 124 193 216 187 223 181 188 128 173 112 34 17 2 353 349 347 347 345 343 341 340 340 341 338 337 327 319 318 327 333 324 312 312 308 300 297 301
192 229 147 189 208 211 168 204 212 107 25 237 171 127 15 95 43 22 3 354 349 347 348 347 345 343 343 344 344 342 334 337 339 337 330 329 332 331 322 315 318 310 306 298
107 273 225 202 103 60 267 247 167 195 185 123 311 110 8 87 74 5 350 352 349 348 350 349 346 346 347 347 347 346 331 341 344 343 332 329 324 332 328 322 314 317 315 300
162 225 220 176 189 196 226 176 166 128 146 129 210 134 113 114 62 4 345 354 351 350 351 350 350 351 349 348 347 344 347 346 351 348 341 333 331 334 332 325 318 322 323 323
293 58 340 317 28 339 169 152 169 256 187 143 92 133 127 80 6 360 1 356 353 353 352 350 352 351 349 350 347 350 349 355 354 344 343 340 343 341 336 333 332 325 330 322
320 72 72 43 128 106 114 126 146 126 107 245 158 111 79 34 358 357 360 356 353 353 352 352 352 349 350 350 350 353 352 352 348 351 355 352 346 345 346 343 339 334 328 322
11 141 127 59 96 92 73 77 86 85 97 114 122 93 36 16 3 7 6 356 352 352 350 352 350 351 351 349 351 357 355 352 356 356 359 351 353 350 346 346 346 334 331 338
29 155 201 128 136 131 72 12 97 97 59 82 89 55 15 12 8 16 360 355 351 348 349 350 351 352 349 349 350 358 356 356 357 356 356 353 353 354 352 348 348 349 340 338
113 97 94 131 267 88 103 88 61 95 80 81 76 35 12 360 4 44 4 354 349 349 350 351 352 350 351 351 349 360 358 0 356 355 354 349 348 348 352 351 348 348 349 348
45 71 102 161 73 103 165 149 140 33 89 42 42 6 353 347 317 79 4 354 349 351 352 352 351 352 353 354 351 359 1 358 354 350 353 347 344 341 344 355 351 352 349 347
59 59 138 75 96 103 131 127 308 297 123 42 7 355 346 330 358 23 354 355 357 356 357 358 358 355 358 358 353 1 357 1 354 347 343 342 344 346 351 352 353 356 347 345
42 43 77 95 99 109 154 128 249 240 73 49 346 339 339 355 17 355 359 5 2 360 1 4 0 1 1 359 357 358 4 357 353 355 341 343 346 350 353 356 359 346 350 349
83 348 106 200 117 142 172 181 288 67 114 340 334 348 5 44 22 11 13 10 6 6 4 5 5 4 1 2 1 357 1 4 355 354 353 344 351 359 5 3 1 8 359 355
164 40 108 359 84 114 140 81 92 7 315 323 337 9 43 33 24 19 15 10 9 6 3 4 5 4 3 3 3 0 356 0 4 5 2 357 360 359 12 14 13 15 14 10
134 217 152 164 143 134 133 167 296 302 293 335 30 45 35 35 24 18 15 11 8 4 3 1 2 4 3 3 1 1 360 359 3 9 8 10 11 14 14 20 20 26 22 21
174 170 165 117 138 144 104 4 330 59 103 91 63 45 37 26 23 19 14 10 6 4 3 2 4 4 3 2 1 1 2 4 359 11 8 7 12 20 17 24 24 22 34 31
179 166 160 148 128 60 74 45 83 96 85 64 45 48 41 30 25 16 12 7 4 356 357 8 17 16 16 15 10 9 6 6 5 12 12 15 20 21 24 28 31 35 40 41
Height
1522 1520 1517 1521 1521 1517 1517 1521 1532 1544 1550 1547 1548 1552 1558 1561 1562 1563 1562 1563 1564 1564 1565 1564 1564 1563 1561 1559 1558 1556 1555 1554 1552 1552 1550 1548 1545 1544 1542 1540 1538 1537 1536 1535
1521 1519 1527 1526 1524 1522 1523 1529 1540 1549 1550 1547 1550 1554 1557 1559 1561 1562 1561 1561 1562 1563 1562 1562 1562 1561 1559 1557 1556 1554 1553 1551 1549 1547 1545 1543 1541 1538 1535 1533 1531 1529 1527 1524
1514 1524 1528 1526 1526 1528 1531 1529 1538 1540 1549 1548 1548 1552 1554 1559 1560 1561 1561 1561 1561 1561 1561 1560 1559 1558 1556 1554 1552 1550 1548 1546 1544 1541 1539 1536 1533 1530 1527 1525 1522 1521 1518 1515
1523 1529 1527 1528 1531 1531 1533 1535 1538 1543 1540 1538 1547 1540 1550 1554 1554 1558 1558 1559 1559 1560 1560 1558 1557 1555 1553 1551 1549 1546 1544 1541 1538 1535 1532 1530 1526 1523 1520 1518 1515 1513 1510 1506
1528 1529 1529 1530 1533 1534 1537 1538 1539 1542 1541 1543 1547 1546 1548 1553 1551 1554 1556 1558 1559 1559 1558 1556 1554 1553 1551 1548 1546 1543 1539 1536 1534 1530 1526 1522 1519 1516 1513 1510 1507 1504 1501 1498
1526 1530 1531 1532 1536 1535 1539 1542 1544 1542 1542 1545 1542 1545 1549 1545 1552 1553 1556 1557 1559 1558 1557 1555 1553 1550 1548 1545 1542 1538 1535 1532 1529 1524 1520 1515 1511 1507 1503 1501 1498 1495 1492 1490
1527 1531 1533 1534 1537 1540 1537 1538 1543 1549 1548 1548 1549 1549 1546 1550 1554 1555 1556 1558 1558 1558 1556 1553 1551 1548 1545 1542 1538 1534 1531 1526 1522 1518 1513 1508 1504 1500 1496 1493 1490 1486 1483 1480
1523 1534 1531 1535 1531 1531 1534 1532 1535 1545 1535 1545 1548 1552 1547 1553 1555 1556 1557 1558 1557 1556 1554 1552 1549 1546 1542 1538 1534 1530 1525 1521 1516 1511 1507 1503 1499 1495 1490 1486 1481 1477 1474 1471
1525 1528 1536 1536 1536 1535 1534 1537 1534 1537 1543 1539 1539 1555 1553 1554 1554 1556 1557 1557 1556 1555 1553 1549 1546 1543 1539 1535 1531 1526 1521 1515 1510 1506 1501 1496 1491 1487 1483 1478 1474 1470 1466 1463
1528 1533 1533 1537 1538 1538 1533 1532 1538 1535 1558 1553 1543 1546 1548 1552 1552 1555 1556 1556 1556 1554 1551 1548 1544 1541 1538 1534 1529 1524 1517 1511 1504 1499 1494 1491 1486 1481 1477 1472 1467 1463 1459 1455
1528 1529 1534 1535 1532 1526 1536 1534 1538 1541 1563 1542 1541 1552 1552 1553 1556 1556 1556 1556 1555 1553 1550 1546 1543 1540 1536 1531 1526 1521 1514 1505 1499 1494 1491 1487 1483 1478 1472 1467 1463 1459 1454 1451
1531 1527 1527 1526 1536 1538 1536 1533 1543 1550 1556 1555 1542 1557 1558 1557 1557 1557 1556 1555 1554 1552 1549 1545 1542 1538 1533 1529 1523 1517 1508 1501 1495 1491 1488 1484 1479 1473 1468 1464 1459 1454 1449 1444
1531 1528 1530 1532 1536 1536 1534 1538 1541 1550 1552 1551 1547 1558 1557 1557 1556 1556 1554 1554 1552 1551 1547 1544 1540 1536 1531 1526 1521 1513 1505 1498 1493 1488 1485 1481 1475 1470 1465 1459 1454 1450 1445 1441
1535 1534 1534 1528 1533 1532 1536 1542 1541 1538 1545 1553 1556 1554 1554 1555 1555 1554 1554 1553 1552 1550 1547 1543 1538 1534 1529 1524 1518 1510 1503 1496 1491 1487 1482 1477 1473 1467 1461 1456 1449 1446 1442 1439
1535 1537 1547 1543 1539 1538 1539 1543 1541 1541 1540 1542 1555 1554 1555 1556 1555 1554 1554 1553 1551 1549 1546 1542 1537 1533 1528 1522 1515 1508 1501 1495 1490 1484 1480 1477 1471 1465 1459 1453 1447 1443 1438 1434
1538 1548 1543 1547 1543 1549 1553 1549 1544 1544 1545 1546 1549 1556 1556 1555 1554 1554 1554 1553 1551 1549 1545 1541 1536 1531 1526 1521 1514 1506 1500 1494 1488 1483 1480 1476 1470 1463 1457 1451 1446 1441 1436 1431
1537 1543 1546 1551 1545 1540 1554 1565 1554 1554 1552 1547 1558 1558 1556 1554 1553 1555 1555 1553 1551 1548 1544 1540 1535 1530 1526 1520 1513 1505 1499 1493 1488 1482 1480 1475 1469 1462 1456 1449 1444 1439 1434 1429
1540 1548 1552 1553 1548 1552 1566 1564 1559 1557 1557 1556 1557 1557 1556 1555 1554 1556 1556 1554 1551 1547 1543 1539 1534 1530 1525 1520 1512 1505 1499 1492 1487 1482 1479 1474 1468 1462 1456 1448 1443 1438 1433 1429
1545 1543 1548 1549 1549 1570 1566 1563 1561 1557 1562 1561 1561 1562 1560 1556 1551 1554 1556 1554 1551 1547 1543 1539 1534 1530 1525 1519 1512 1504 1498 1493 1488 1482 1478 1474 1467 1461 1455 1448 1442 1437 1433 1429
1546 1544 1547 1547 1547 1557 1561 1563 1566 1564 1560 1564 1565 1564 1561 1556 1548 1553 1556 1553 1550 1547 1543 1538 1534 1530 1525 1519 1513 1505 1498 1492 1487 1482 1477 1473 1467 1461 1454 1449 1442 1437 1433 1429
1550 1551 1550 1554 1559 1566 1564 1566 1567 1558 1565 1565 1565 1564 1561 1557 1559 1559 1556 1553 1550 1546 1542 1538 1534 1529 1524 1518 1513 1505 1497 1491 1486 1481 1478 1473 1467 1461 1454 1449 1443 1438 1434 1430
1556 1552 1560 1555 1558 1567 1565 1566 1561 1564 1564 1565 1564 1562 1560 1560 1560 1558 1555 1553 1549 1546 1542 1538 1534 1529 1524 1519 1513 1507 1499 1491 1485 1481 1477 1472 1467 1461 1454 1449 1444 1439 1435 1431
1560 1563 1562 1562 1559 1563 1565 1565 1566 1566 1565 1565 1564 1562 1562 1561 1560 1558 1555 1553 1549 1546 1543 1539 1535 1530 1525 1519 1514 1508 1502 1493 1485 1481 1476 1472 1467 1462 1456 1451 1446 1440 1436 1432
1565 1565 1560 1558 1564 1563 1565 1565 1566 1565 1565 1565 1564 1563 1562 1562 1560 1558 1556 1553 1550 1547 1544 1539 1535 1531 1526 1521 1515 1510 1503 1497 1488 1482 1477 1472 1468 1463 1458 1454 1449 1443 1438 1434
1561 1563 1559 1558 1562 1565 1566 1566 1565 1565 1565 1565 1565 1565 1564 1562 1561 1559 1557 1555 1552 1548 1544 1539 1535 1531 1526 1522 1517 1511 1504 1498 1491 1484 1479 1474 1469 1465 1461 1456 1452 1447 1443 1439
1559 1559 1556 1557 1563 1563 1567 1567 1567 1567 1567 1567 1567 1566 1565 1564 1563 1561 1559 1556 1551 1547 1542 1538 1534 1531 1526 1521 1516 1510 1505 1500 1494 1486 1481 1476 1471 1467 1464 1459 1455 1452 1448 1444